Year,Month,Day,Hour,Minute,Value (Times are PST for temperature in C)
2017,05,17,00,00,7.60
2017,05,17,00,01,7.60
2017,05,17,00,02,7.60
2017,05,17,00,03,7.60
2017,05,17,00,04,7.60
2017,05,17,00,05,7.60
2017,05,17,00,06,7.60
2017,05,17,00,07,7.60
2017,05,17,00,08,7.60
2017,05,17,00,09,7.60
2017,05,17,00,10,7.60
2017,05,17,00,11,7.60
2017,05,17,00,12,7.60
2017,05,17,00,13,7.60
2017,05,17,00,14,7.60
2017,05,17,00,15,7.60
2017,05,17,00,16,7.60
2017,05,17,00,17,7.60
2017,05,17,00,18,7.60
2017,05,17,00,19,7.60
2017,05,17,00,20,7.60
2017,05,17,00,21,7.60
2017,05,17,00,22,7.60
2017,05,17,00,23,7.60
2017,05,17,00,24,7.50
2017,05,17,00,25,7.50
2017,05,17,00,26,7.50
2017,05,17,00,27,7.50
2017,05,17,00,28,7.50
2017,05,17,00,29,7.50
2017,05,17,00,30,7.50
2017,05,17,00,31,7.40
2017,05,17,00,32,7.40
2017,05,17,00,33,7.40
2017,05,17,00,34,7.30
2017,05,17,00,35,7.30
2017,05,17,00,36,7.30
2017,05,17,00,37,7.20
2017,05,17,00,38,7.20
2017,05,17,00,39,7.20
2017,05,17,00,40,7.20
2017,05,17,00,41,7.20
2017,05,17,00,42,7.20
2017,05,17,00,43,7.20
2017,05,17,00,44,7.20
2017,05,17,00,45,7.20
2017,05,17,00,46,7.20
2017,05,17,00,47,7.20
2017,05,17,00,48,7.20
2017,05,17,00,49,7.20
2017,05,17,00,50,7.20
2017,05,17,00,51,7.20
2017,05,17,00,52,7.20
2017,05,17,00,53,7.20
2017,05,17,00,54,7.20
2017,05,17,00,55,7.20
2017,05,17,00,56,7.20
2017,05,17,00,57,7.20
2017,05,17,00,58,7.10
2017,05,17,00,59,7.10
2017,05,17,01,00,7.10
2017,05,17,01,01,7.10
2017,05,17,01,02,7.10
2017,05,17,01,03,7.10
2017,05,17,01,04,7.10
2017,05,17,01,05,7.10
2017,05,17,01,06,7.10
2017,05,17,01,07,7.10
2017,05,17,01,08,7.10
2017,05,17,01,09,7.10
2017,05,17,01,10,7.10
2017,05,17,01,11,7.10
2017,05,17,01,12,7.10
2017,05,17,01,13,7.10
2017,05,17,01,14,7.10
2017,05,17,01,15,7.10
2017,05,17,01,16,7.10
2017,05,17,01,17,7.10
2017,05,17,01,18,7.10
2017,05,17,01,19,7.00
2017,05,17,01,20,7.00
2017,05,17,01,21,7.00
2017,05,17,01,22,7.00
2017,05,17,01,23,7.00
2017,05,17,01,24,6.90
2017,05,17,01,25,6.90
2017,05,17,01,26,6.90
2017,05,17,01,27,6.90
2017,05,17,01,28,6.90
2017,05,17,01,29,6.90
2017,05,17,01,30,6.80
2017,05,17,01,31,6.80
2017,05,17,01,32,6.80
2017,05,17,01,33,6.80
2017,05,17,01,34,6.80
2017,05,17,01,35,6.80
2017,05,17,01,36,6.80
2017,05,17,01,37,6.90
2017,05,17,01,38,6.90
2017,05,17,01,39,6.90
2017,05,17,01,40,6.90
2017,05,17,01,41,6.90
2017,05,17,01,42,6.90
2017,05,17,01,43,6.90
2017,05,17,01,44,6.90
2017,05,17,01,45,6.80
2017,05,17,01,46,6.80
2017,05,17,01,47,6.80
2017,05,17,01,48,6.80
2017,05,17,01,49,6.80
2017,05,17,01,50,6.80
2017,05,17,01,51,6.80
2017,05,17,01,52,6.80
2017,05,17,01,53,6.90
2017,05,17,01,54,6.90
2017,05,17,01,55,6.80
2017,05,17,01,56,6.90
2017,05,17,01,57,6.90
2017,05,17,01,58,6.90
2017,05,17,01,59,6.90
2017,05,17,02,00,6.90
2017,05,17,02,01,6.90
2017,05,17,02,02,6.90
2017,05,17,02,03,6.90
2017,05,17,02,04,6.90
2017,05,17,02,05,6.90
2017,05,17,02,06,6.90
2017,05,17,02,07,6.90
2017,05,17,02,08,6.90
2017,05,17,02,09,6.90
2017,05,17,02,10,6.90
2017,05,17,02,11,6.90
2017,05,17,02,12,6.90
2017,05,17,02,13,6.90
2017,05,17,02,14,6.90
2017,05,17,02,15,6.90
2017,05,17,02,16,6.90
2017,05,17,02,17,6.90
2017,05,17,02,18,6.80
2017,05,17,02,19,6.80
2017,05,17,02,20,6.80
2017,05,17,02,21,6.70
2017,05,17,02,22,6.70
2017,05,17,02,23,6.70
2017,05,17,02,24,6.70
2017,05,17,02,25,6.70
2017,05,17,02,26,6.70
2017,05,17,02,27,6.60
2017,05,17,02,28,6.60
2017,05,17,02,29,6.60
2017,05,17,02,30,6.60
2017,05,17,02,31,6.50
2017,05,17,02,32,6.50
2017,05,17,02,33,6.50
2017,05,17,02,34,6.50
2017,05,17,02,35,6.50
2017,05,17,02,36,6.50
2017,05,17,02,37,6.50
2017,05,17,02,38,6.50
2017,05,17,02,39,6.50
2017,05,17,02,40,6.40
2017,05,17,02,41,6.40
2017,05,17,02,42,6.40
2017,05,17,02,43,6.40
2017,05,17,02,44,6.40
2017,05,17,02,45,6.30
2017,05,17,02,46,6.30
2017,05,17,02,47,6.30
2017,05,17,02,48,6.30
2017,05,17,02,49,6.30
2017,05,17,02,50,6.30
2017,05,17,02,51,6.30
2017,05,17,02,52,6.30
2017,05,17,02,53,6.30
2017,05,17,02,54,6.40
2017,05,17,02,55,6.40
2017,05,17,02,56,6.40
2017,05,17,02,57,6.40
2017,05,17,02,58,6.30
2017,05,17,02,59,6.30
2017,05,17,03,00,6.30
2017,05,17,03,01,6.30
2017,05,17,03,02,6.30
2017,05,17,03,03,6.20
2017,05,17,03,04,6.20
2017,05,17,03,05,6.20
2017,05,17,03,06,6.20
2017,05,17,03,07,6.20
2017,05,17,03,08,6.10
2017,05,17,03,09,6.20
2017,05,17,03,10,6.20
2017,05,17,03,11,6.20
2017,05,17,03,12,6.20
2017,05,17,03,13,6.20
2017,05,17,03,14,6.10
2017,05,17,03,15,6.10
2017,05,17,03,16,6.10
2017,05,17,03,17,6.10
2017,05,17,03,18,6.10
2017,05,17,03,19,6.00
2017,05,17,03,20,6.00
2017,05,17,03,21,5.90
2017,05,17,03,22,5.90
2017,05,17,03,23,5.90
2017,05,17,03,24,5.90
2017,05,17,03,25,5.90
2017,05,17,03,26,5.90
2017,05,17,03,27,5.80
2017,05,17,03,28,5.80
2017,05,17,03,29,5.80
2017,05,17,03,30,5.80
2017,05,17,03,31,5.80
2017,05,17,03,32,5.80
2017,05,17,03,33,5.80
2017,05,17,03,34,5.80
2017,05,17,03,35,5.80
2017,05,17,03,36,5.80
2017,05,17,03,37,5.80
2017,05,17,03,38,5.80
2017,05,17,03,39,5.80
2017,05,17,03,40,5.80
2017,05,17,03,41,5.80
2017,05,17,03,42,5.80
2017,05,17,03,43,5.80
2017,05,17,03,44,5.80
2017,05,17,03,45,5.70
2017,05,17,03,46,5.70
2017,05,17,03,47,5.70
2017,05,17,03,48,5.70
2017,05,17,03,49,5.70
2017,05,17,03,50,5.70
2017,05,17,03,51,5.70
2017,05,17,03,52,5.70
2017,05,17,03,53,5.70
2017,05,17,03,54,5.70
2017,05,17,03,55,5.70
2017,05,17,03,56,5.70
2017,05,17,03,57,5.70
2017,05,17,03,58,5.70
2017,05,17,03,59,5.70
2017,05,17,04,00,5.70
2017,05,17,04,01,5.80
2017,05,17,04,02,5.80
2017,05,17,04,03,5.80
2017,05,17,04,04,5.80
2017,05,17,04,05,5.80
2017,05,17,04,06,5.70
2017,05,17,04,07,5.70
2017,05,17,04,08,5.70
2017,05,17,04,09,5.70
2017,05,17,04,10,5.60
2017,05,17,04,11,5.60
2017,05,17,04,12,5.60
2017,05,17,04,13,5.60
2017,05,17,04,14,5.60
2017,05,17,04,15,5.50
2017,05,17,04,16,5.50
2017,05,17,04,17,5.50
2017,05,17,04,18,5.40
2017,05,17,04,19,5.40
2017,05,17,04,20,5.40
2017,05,17,04,21,5.40
2017,05,17,04,22,5.40
2017,05,17,04,23,5.40
2017,05,17,04,24,5.40
2017,05,17,04,25,5.40
2017,05,17,04,26,5.40
2017,05,17,04,27,5.50
2017,05,17,04,28,5.50
2017,05,17,04,29,5.50
2017,05,17,04,30,5.60
2017,05,17,04,31,5.60
2017,05,17,04,32,5.60
2017,05,17,04,33,5.60
2017,05,17,04,34,5.60
2017,05,17,04,35,5.50
2017,05,17,04,36,5.50
2017,05,17,04,37,5.40
2017,05,17,04,38,5.40
2017,05,17,04,39,5.50
2017,05,17,04,40,5.50
2017,05,17,04,41,5.50
2017,05,17,04,42,5.60
2017,05,17,04,43,5.60
2017,05,17,04,44,5.60
2017,05,17,04,45,5.60
2017,05,17,04,46,5.70
2017,05,17,04,47,5.80
2017,05,17,04,48,5.80
2017,05,17,04,49,5.80
2017,05,17,04,50,5.80
2017,05,17,04,51,5.80
2017,05,17,04,52,5.80
2017,05,17,04,53,5.80
2017,05,17,04,54,5.80
2017,05,17,04,55,5.80
2017,05,17,04,56,5.80
2017,05,17,04,57,5.70
2017,05,17,04,58,5.70
2017,05,17,04,59,5.70
2017,05,17,05,00,5.70
2017,05,17,05,01,5.70
2017,05,17,05,02,5.70
2017,05,17,05,03,5.70
2017,05,17,05,04,5.60
2017,05,17,05,05,5.60
2017,05,17,05,06,5.60
2017,05,17,05,07,5.60
2017,05,17,05,08,5.60
2017,05,17,05,09,5.60
2017,05,17,05,10,5.60
2017,05,17,05,11,5.60
2017,05,17,05,12,5.70
2017,05,17,05,13,5.70
2017,05,17,05,14,5.70
2017,05,17,05,15,5.70
2017,05,17,05,16,5.70
2017,05,17,05,17,5.60
2017,05,17,05,18,5.60
2017,05,17,05,19,5.60
2017,05,17,05,20,5.60
2017,05,17,05,21,5.60
2017,05,17,05,22,5.60
2017,05,17,05,23,5.60
2017,05,17,05,24,5.50
2017,05,17,05,25,5.50
2017,05,17,05,26,5.40
2017,05,17,05,27,5.40
2017,05,17,05,28,5.40
2017,05,17,05,29,5.30
2017,05,17,05,30,5.30
2017,05,17,05,31,5.30
2017,05,17,05,32,5.30
2017,05,17,05,33,5.30
2017,05,17,05,34,5.30
2017,05,17,05,35,5.30
2017,05,17,05,36,5.30
2017,05,17,05,37,5.30
2017,05,17,05,38,5.30
2017,05,17,05,39,5.20
2017,05,17,05,40,5.20
2017,05,17,05,41,5.20
2017,05,17,05,42,5.30
2017,05,17,05,43,5.30
2017,05,17,05,44,5.30
2017,05,17,05,45,5.30
2017,05,17,05,46,5.30
2017,05,17,05,47,5.30
2017,05,17,05,48,5.30
2017,05,17,05,49,5.30
2017,05,17,05,50,5.40
2017,05,17,05,51,5.40
2017,05,17,05,52,5.40
2017,05,17,05,53,5.40
2017,05,17,05,54,5.40
2017,05,17,05,55,5.50
2017,05,17,05,56,5.50
2017,05,17,05,57,5.50
2017,05,17,05,58,5.60
2017,05,17,05,59,5.60
2017,05,17,06,00,5.60
2017,05,17,06,01,5.60
2017,05,17,06,02,5.60
2017,05,17,06,03,5.60
2017,05,17,06,04,5.60
2017,05,17,06,05,5.70
2017,05,17,06,06,5.70
2017,05,17,06,07,5.60
2017,05,17,06,08,5.60
2017,05,17,06,09,5.60
2017,05,17,06,10,5.60
2017,05,17,06,11,5.50
2017,05,17,06,12,5.50
2017,05,17,06,13,5.50
2017,05,17,06,14,5.40
2017,05,17,06,15,5.40
2017,05,17,06,16,5.40
2017,05,17,06,17,5.40
2017,05,17,06,18,5.30
2017,05,17,06,19,5.30
2017,05,17,06,20,5.30
2017,05,17,06,21,5.30
2017,05,17,06,22,5.30
2017,05,17,06,23,5.30
2017,05,17,06,24,5.20
2017,05,17,06,25,5.20
2017,05,17,06,26,5.20
2017,05,17,06,27,5.20
2017,05,17,06,28,5.20
2017,05,17,06,29,5.20
2017,05,17,06,30,5.20
2017,05,17,06,31,5.30
2017,05,17,06,32,5.30
2017,05,17,06,33,5.30
2017,05,17,06,34,5.40
2017,05,17,06,35,5.40
2017,05,17,06,36,5.40
2017,05,17,06,37,5.40
2017,05,17,06,38,5.50
2017,05,17,06,39,5.40
2017,05,17,06,40,5.40
2017,05,17,06,41,5.40
2017,05,17,06,42,5.30
2017,05,17,06,43,5.30
2017,05,17,06,44,5.30
2017,05,17,06,45,5.30
2017,05,17,06,46,5.30
2017,05,17,06,47,5.20
2017,05,17,06,48,5.20
2017,05,17,06,49,5.20
2017,05,17,06,50,5.20
2017,05,17,06,51,5.20
2017,05,17,06,52,5.20
2017,05,17,06,53,5.20
2017,05,17,06,54,5.20
2017,05,17,06,55,5.20
2017,05,17,06,56,5.20
2017,05,17,06,57,5.20
2017,05,17,06,58,5.20
2017,05,17,06,59,5.20
2017,05,17,07,00,5.20
2017,05,17,07,01,5.20
2017,05,17,07,02,5.30
2017,05,17,07,03,5.30
2017,05,17,07,04,5.30
2017,05,17,07,05,5.40
2017,05,17,07,06,5.50
2017,05,17,07,07,5.60
2017,05,17,07,08,5.70
2017,05,17,07,09,5.80
2017,05,17,07,10,5.80
2017,05,17,07,11,5.90
2017,05,17,07,12,6.00
2017,05,17,07,13,6.00
2017,05,17,07,14,6.10
2017,05,17,07,15,6.20
2017,05,17,07,16,6.20
2017,05,17,07,17,6.20
2017,05,17,07,18,6.30
2017,05,17,07,19,6.30
2017,05,17,07,20,6.30
2017,05,17,07,21,6.40
2017,05,17,07,22,6.40
2017,05,17,07,23,6.50
2017,05,17,07,24,6.50
2017,05,17,07,25,6.60
2017,05,17,07,26,6.60
2017,05,17,07,27,6.70
2017,05,17,07,28,6.70
2017,05,17,07,29,6.70
2017,05,17,07,30,6.70
2017,05,17,07,31,6.70
2017,05,17,07,32,6.70
2017,05,17,07,33,6.70
2017,05,17,07,34,6.70
2017,05,17,07,35,6.70
2017,05,17,07,36,6.70
2017,05,17,07,37,6.70
2017,05,17,07,38,6.70
2017,05,17,07,39,6.80
2017,05,17,07,40,6.80
2017,05,17,07,41,6.80
2017,05,17,07,42,6.80
2017,05,17,07,43,6.80
2017,05,17,07,44,6.80
2017,05,17,07,45,6.80
2017,05,17,07,46,6.80
2017,05,17,07,47,6.80
2017,05,17,07,48,6.70
2017,05,17,07,49,6.70
2017,05,17,07,50,6.70
2017,05,17,07,51,6.70
2017,05,17,07,52,6.70
2017,05,17,07,53,6.70
2017,05,17,07,54,6.70
2017,05,17,07,55,6.70
2017,05,17,07,56,6.70
2017,05,17,07,57,6.70
2017,05,17,07,58,6.70
2017,05,17,07,59,6.80
2017,05,17,08,00,6.80
2017,05,17,08,01,6.80
2017,05,17,08,02,6.80
2017,05,17,08,03,6.80
2017,05,17,08,04,6.80
2017,05,17,08,05,6.90
2017,05,17,08,06,6.90
2017,05,17,08,07,6.90
2017,05,17,08,08,7.00
2017,05,17,08,09,7.10
2017,05,17,08,10,7.10
2017,05,17,08,11,7.20
2017,05,17,08,12,7.20
2017,05,17,08,13,7.20
2017,05,17,08,14,7.20
2017,05,17,08,15,7.30
2017,05,17,08,16,7.30
2017,05,17,08,17,7.30
2017,05,17,08,18,7.30
2017,05,17,08,19,7.30
2017,05,17,08,20,7.30
2017,05,17,08,21,7.30
2017,05,17,08,22,7.30
2017,05,17,08,23,7.30
2017,05,17,08,24,7.30
2017,05,17,08,25,7.20
2017,05,17,08,26,7.20
2017,05,17,08,27,7.20
2017,05,17,08,28,7.20
2017,05,17,08,29,7.20
2017,05,17,08,30,7.20
2017,05,17,08,31,7.20
2017,05,17,08,32,7.20
2017,05,17,08,33,7.20
2017,05,17,08,34,7.20
2017,05,17,08,35,7.20
2017,05,17,08,36,7.20
2017,05,17,08,37,7.20
2017,05,17,08,38,7.20
2017,05,17,08,39,7.20
2017,05,17,08,40,7.20
2017,05,17,08,41,7.20
2017,05,17,08,42,7.20
2017,05,17,08,43,7.20
2017,05,17,08,44,7.20
2017,05,17,08,45,7.30
2017,05,17,08,46,7.30
2017,05,17,08,47,7.40
2017,05,17,08,48,7.40
2017,05,17,08,49,7.50
2017,05,17,08,50,7.50
2017,05,17,08,51,7.60
2017,05,17,08,52,7.70
2017,05,17,08,53,7.70
2017,05,17,08,54,7.70
2017,05,17,08,55,7.80
2017,05,17,08,56,7.80
2017,05,17,08,57,7.80
2017,05,17,08,58,7.90
2017,05,17,08,59,7.90
2017,05,17,09,00,8.00
2017,05,17,09,01,8.00
2017,05,17,09,02,8.10
2017,05,17,09,03,8.10
2017,05,17,09,04,8.20
2017,05,17,09,05,8.20
2017,05,17,09,06,8.30
2017,05,17,09,07,8.30
2017,05,17,09,08,8.40
2017,05,17,09,09,8.40
2017,05,17,09,10,8.50
2017,05,17,09,11,8.50
2017,05,17,09,12,8.60
2017,05,17,09,13,8.60
2017,05,17,09,14,8.60
2017,05,17,09,15,8.70
2017,05,17,09,16,8.70
2017,05,17,09,17,8.70
2017,05,17,09,18,8.70
2017,05,17,09,19,8.80
2017,05,17,09,20,8.80
2017,05,17,09,21,8.80
2017,05,17,09,22,8.90
2017,05,17,09,23,8.90
2017,05,17,09,24,8.90
2017,05,17,09,25,8.90
2017,05,17,09,26,9.00
2017,05,17,09,27,9.00
2017,05,17,09,28,9.00
2017,05,17,09,29,9.10
2017,05,17,09,30,9.10
2017,05,17,09,31,9.10
2017,05,17,09,32,9.10
2017,05,17,09,33,9.20
2017,05,17,09,34,9.20
2017,05,17,09,35,9.20
2017,05,17,09,36,9.20
2017,05,17,09,37,9.30
2017,05,17,09,38,9.30
2017,05,17,09,39,9.30
2017,05,17,09,40,9.30
2017,05,17,09,41,9.40
2017,05,17,09,42,9.40
2017,05,17,09,43,9.40
2017,05,17,09,44,9.50
2017,05,17,09,45,9.50
2017,05,17,09,46,9.60
2017,05,17,09,47,9.60
2017,05,17,09,48,9.70
2017,05,17,09,49,9.70
2017,05,17,09,50,9.70
2017,05,17,09,51,9.80
2017,05,17,09,52,9.90
2017,05,17,09,53,10.00
2017,05,17,09,54,10.10
2017,05,17,09,55,10.10
2017,05,17,09,56,10.20
2017,05,17,09,57,10.20
2017,05,17,09,58,10.30
2017,05,17,09,59,10.30
2017,05,17,10,00,10.40
2017,05,17,10,01,10.40
2017,05,17,10,02,10.50
2017,05,17,10,03,10.50
2017,05,17,10,04,10.60
2017,05,17,10,05,10.70
2017,05,17,10,06,10.70
2017,05,17,10,07,10.80
2017,05,17,10,08,10.90
2017,05,17,10,09,11.00
2017,05,17,10,10,11.00
2017,05,17,10,11,11.10
2017,05,17,10,12,11.20
2017,05,17,10,13,11.30
2017,05,17,10,14,11.30
2017,05,17,10,15,11.40
2017,05,17,10,16,11.50
2017,05,17,10,17,11.60
2017,05,17,10,18,11.70
2017,05,17,10,19,11.80
2017,05,17,10,20,11.90
2017,05,17,10,21,12.10
2017,05,17,10,22,12.20
2017,05,17,10,23,12.30
2017,05,17,10,24,12.40
2017,05,17,10,25,12.50
2017,05,17,10,26,12.60
2017,05,17,10,27,12.70
2017,05,17,10,28,12.80
2017,05,17,10,29,12.90
2017,05,17,10,30,13.00
2017,05,17,10,31,13.00
2017,05,17,10,32,13.10
2017,05,17,10,33,13.20
2017,05,17,10,34,13.40
2017,05,17,10,35,13.50
2017,05,17,10,36,13.50
2017,05,17,10,37,13.60
2017,05,17,10,38,13.60
2017,05,17,10,39,13.70
2017,05,17,10,40,13.80
2017,05,17,10,41,13.90
2017,05,17,10,42,14.00
2017,05,17,10,43,14.10
2017,05,17,10,44,14.10
2017,05,17,10,45,14.10
2017,05,17,10,46,14.10
2017,05,17,10,47,14.20
2017,05,17,10,48,14.20
2017,05,17,10,49,14.20
2017,05,17,10,50,14.20
2017,05,17,10,51,14.30
2017,05,17,10,52,14.20
2017,05,17,10,53,14.20
2017,05,17,10,54,14.20
2017,05,17,10,55,14.30
2017,05,17,10,56,14.30
2017,05,17,10,57,14.30
2017,05,17,10,58,14.40
2017,05,17,10,59,14.40
2017,05,17,11,00,14.50
2017,05,17,11,01,14.50
2017,05,17,11,02,14.50
2017,05,17,11,03,14.50
2017,05,17,11,04,14.50
2017,05,17,11,05,14.50
2017,05,17,11,06,14.50
2017,05,17,11,07,14.60
2017,05,17,11,08,14.70
2017,05,17,11,09,14.80
2017,05,17,11,10,14.80
2017,05,17,11,11,14.80
2017,05,17,11,12,14.90
2017,05,17,11,13,14.90
2017,05,17,11,14,15.00
2017,05,17,11,15,15.10
2017,05,17,11,16,15.20
2017,05,17,11,17,15.30
2017,05,17,11,18,15.40
2017,05,17,11,19,15.50
2017,05,17,11,20,15.60
2017,05,17,11,21,15.60
2017,05,17,11,22,15.60
2017,05,17,11,23,15.60
2017,05,17,11,24,15.60
2017,05,17,11,25,15.60
2017,05,17,11,26,15.60
2017,05,17,11,27,15.60
2017,05,17,11,28,15.60
2017,05,17,11,29,15.60
2017,05,17,11,30,15.60
2017,05,17,11,31,15.60
2017,05,17,11,32,15.60
2017,05,17,11,33,15.50
2017,05,17,11,34,15.60
2017,05,17,11,35,15.60
2017,05,17,11,36,15.70
2017,05,17,11,37,15.70
2017,05,17,11,38,15.80
2017,05,17,11,39,15.80
2017,05,17,11,40,15.70
2017,05,17,11,41,15.70
2017,05,17,11,42,15.70
2017,05,17,11,43,15.70
2017,05,17,11,44,15.70
2017,05,17,11,45,15.70
2017,05,17,11,46,15.60
2017,05,17,11,47,15.50
2017,05,17,11,48,15.50
2017,05,17,11,49,15.40
2017,05,17,11,50,15.40
2017,05,17,11,51,15.40
2017,05,17,11,52,15.40
2017,05,17,11,53,15.30
2017,05,17,11,54,15.30
2017,05,17,11,55,15.40
2017,05,17,11,56,15.40
2017,05,17,11,57,15.40
2017,05,17,11,58,15.40
2017,05,17,11,59,15.50
2017,05,17,12,00,15.60
2017,05,17,12,01,15.60
2017,05,17,12,02,15.70
2017,05,17,12,03,15.80
2017,05,17,12,04,15.80
2017,05,17,12,05,15.80
2017,05,17,12,06,15.90
2017,05,17,12,07,15.90
2017,05,17,12,08,15.90
2017,05,17,12,09,15.90
2017,05,17,12,10,15.90
2017,05,17,12,11,15.90
2017,05,17,12,12,15.80
2017,05,17,12,13,15.80
2017,05,17,12,14,15.80
2017,05,17,12,15,15.80
2017,05,17,12,16,15.90
2017,05,17,12,17,15.90
2017,05,17,12,18,15.90
2017,05,17,12,19,15.90
2017,05,17,12,20,16.00
2017,05,17,12,21,16.10
2017,05,17,12,22,16.10
2017,05,17,12,23,16.10
2017,05,17,12,24,16.20
2017,05,17,12,25,16.10
2017,05,17,12,26,16.10
2017,05,17,12,27,16.10
2017,05,17,12,28,16.10
2017,05,17,12,29,16.10
2017,05,17,12,30,16.20
2017,05,17,12,31,16.20
2017,05,17,12,32,16.20
2017,05,17,12,33,16.20
2017,05,17,12,34,16.20
2017,05,17,12,35,16.10
2017,05,17,12,36,16.10
2017,05,17,12,37,16.20
2017,05,17,12,38,16.20
2017,05,17,12,39,16.20
2017,05,17,12,40,16.20
2017,05,17,12,41,16.10
2017,05,17,12,42,16.20
2017,05,17,12,43,16.20
2017,05,17,12,44,16.30
2017,05,17,12,45,16.30
2017,05,17,12,46,16.30
2017,05,17,12,47,16.30
2017,05,17,12,48,16.30
2017,05,17,12,49,16.30
2017,05,17,12,50,16.30
2017,05,17,12,51,16.30
2017,05,17,12,52,16.30
2017,05,17,12,53,16.30
2017,05,17,12,54,16.30
2017,05,17,12,55,16.40
2017,05,17,12,56,16.40
2017,05,17,12,57,16.40
2017,05,17,12,58,16.40
2017,05,17,12,59,16.40
2017,05,17,13,00,16.40
2017,05,17,13,01,16.40
2017,05,17,13,02,16.50
2017,05,17,13,03,16.50
2017,05,17,13,04,16.50
2017,05,17,13,05,16.50
2017,05,17,13,06,16.50
2017,05,17,13,07,16.50
2017,05,17,13,08,16.50
2017,05,17,13,09,16.50
2017,05,17,13,10,16.40
2017,05,17,13,11,16.40
2017,05,17,13,12,16.40
2017,05,17,13,13,16.40
2017,05,17,13,14,16.40
2017,05,17,13,15,16.40
2017,05,17,13,16,16.40
2017,05,17,13,17,16.40
2017,05,17,13,18,16.40
2017,05,17,13,19,16.40
2017,05,17,13,20,16.40
2017,05,17,13,21,16.40
2017,05,17,13,22,16.50
2017,05,17,13,23,16.50
2017,05,17,13,24,16.50
2017,05,17,13,25,16.50
2017,05,17,13,26,16.40
2017,05,17,13,27,16.40
2017,05,17,13,28,16.40
2017,05,17,13,29,16.30
2017,05,17,13,30,16.30
2017,05,17,13,31,16.30
2017,05,17,13,32,16.30
2017,05,17,13,33,16.20
2017,05,17,13,34,16.20
2017,05,17,13,35,16.20
2017,05,17,13,36,16.30
2017,05,17,13,37,16.30
2017,05,17,13,38,16.30
2017,05,17,13,39,16.30
2017,05,17,13,40,16.40
2017,05,17,13,41,16.40
2017,05,17,13,42,16.50
2017,05,17,13,43,16.50
2017,05,17,13,44,16.60
2017,05,17,13,45,16.60
2017,05,17,13,46,16.60
2017,05,17,13,47,16.70
2017,05,17,13,48,16.70
2017,05,17,13,49,16.60
2017,05,17,13,50,16.60
2017,05,17,13,51,16.60
2017,05,17,13,52,16.60
2017,05,17,13,53,16.60
2017,05,17,13,54,16.50
2017,05,17,13,55,16.50
2017,05,17,13,56,16.50
2017,05,17,13,57,16.50
2017,05,17,13,58,16.50
2017,05,17,13,59,16.60
2017,05,17,14,00,16.70
2017,05,17,14,01,16.70
2017,05,17,14,02,16.70
2017,05,17,14,03,16.70
2017,05,17,14,04,16.70
2017,05,17,14,05,16.60
2017,05,17,14,06,16.60
2017,05,17,14,07,16.60
2017,05,17,14,08,16.60
2017,05,17,14,09,16.60
2017,05,17,14,10,16.60
2017,05,17,14,11,16.50
2017,05,17,14,12,16.50
2017,05,17,14,13,16.50
2017,05,17,14,14,16.40
2017,05,17,14,15,16.40
2017,05,17,14,16,16.40
2017,05,17,14,17,16.30
2017,05,17,14,18,16.30
2017,05,17,14,19,16.40
2017,05,17,14,20,16.40
2017,05,17,14,21,16.30
2017,05,17,14,22,16.30
2017,05,17,14,23,16.20
2017,05,17,14,24,16.20
2017,05,17,14,25,16.20
2017,05,17,14,26,16.20
2017,05,17,14,27,16.20
2017,05,17,14,28,16.30
2017,05,17,14,29,16.30
2017,05,17,14,30,16.40
2017,05,17,14,31,16.40
2017,05,17,14,32,16.50
2017,05,17,14,33,16.50
2017,05,17,14,34,16.50
2017,05,17,14,35,16.60
2017,05,17,14,36,16.60
2017,05,17,14,37,16.60
2017,05,17,14,38,16.60
2017,05,17,14,39,16.50
2017,05,17,14,40,16.60
2017,05,17,14,41,16.60
2017,05,17,14,42,16.70
2017,05,17,14,43,16.70
2017,05,17,14,44,16.70
2017,05,17,14,45,16.70
2017,05,17,14,46,16.70
2017,05,17,14,47,16.70
2017,05,17,14,48,16.60
2017,05,17,14,49,16.60
2017,05,17,14,50,16.60
2017,05,17,14,51,16.60
2017,05,17,14,52,16.60
2017,05,17,14,53,16.50
2017,05,17,14,54,16.60
2017,05,17,14,55,16.50
2017,05,17,14,56,16.50
2017,05,17,14,57,16.50
2017,05,17,14,58,16.50
2017,05,17,14,59,16.50
2017,05,17,15,00,16.50
2017,05,17,15,01,16.50
2017,05,17,15,02,16.50
2017,05,17,15,03,16.50
2017,05,17,15,04,16.60
2017,05,17,15,05,16.60
2017,05,17,15,06,16.60
2017,05,17,15,07,16.50
2017,05,17,15,08,16.50
2017,05,17,15,09,16.40
2017,05,17,15,10,16.30
2017,05,17,15,11,16.30
2017,05,17,15,12,16.20
2017,05,17,15,13,16.10
2017,05,17,15,14,16.00
2017,05,17,15,15,16.00
2017,05,17,15,16,16.00
2017,05,17,15,17,15.90
2017,05,17,15,18,15.90
2017,05,17,15,19,15.90
2017,05,17,15,20,15.90
2017,05,17,15,21,15.90
2017,05,17,15,22,15.90
2017,05,17,15,23,15.90
2017,05,17,15,24,15.90
2017,05,17,15,25,16.00
2017,05,17,15,26,15.90
2017,05,17,15,27,15.90
2017,05,17,15,28,15.90
2017,05,17,15,29,16.00
2017,05,17,15,30,16.00
2017,05,17,15,31,16.00
2017,05,17,15,32,15.90
2017,05,17,15,33,15.90
2017,05,17,15,34,15.90
2017,05,17,15,35,15.80
2017,05,17,15,36,15.80
2017,05,17,15,37,15.70
2017,05,17,15,38,15.70
2017,05,17,15,39,15.70
2017,05,17,15,40,15.70
2017,05,17,15,41,15.70
2017,05,17,15,42,15.70
2017,05,17,15,43,15.60
2017,05,17,15,44,15.60
2017,05,17,15,45,15.60
2017,05,17,15,46,15.60
2017,05,17,15,47,15.50
2017,05,17,15,48,15.50
2017,05,17,15,49,15.40
2017,05,17,15,50,15.40
2017,05,17,15,51,15.40
2017,05,17,15,52,15.40
2017,05,17,15,53,15.40
2017,05,17,15,54,15.40
2017,05,17,15,55,15.40
2017,05,17,15,56,15.40
2017,05,17,15,57,15.30
2017,05,17,15,58,15.40
2017,05,17,15,59,15.40
2017,05,17,16,00,15.40
2017,05,17,16,01,15.40
2017,05,17,16,02,15.40
2017,05,17,16,03,15.40
2017,05,17,16,04,15.30
2017,05,17,16,05,15.30
2017,05,17,16,06,15.30
2017,05,17,16,07,15.30
2017,05,17,16,08,15.30
2017,05,17,16,09,15.30
2017,05,17,16,10,15.30
2017,05,17,16,11,15.30
2017,05,17,16,12,15.30
2017,05,17,16,13,15.30
2017,05,17,16,14,15.30
2017,05,17,16,15,15.30
2017,05,17,16,16,15.30
2017,05,17,16,17,15.30
2017,05,17,16,18,15.30
2017,05,17,16,19,15.30
2017,05,17,16,20,15.30
2017,05,17,16,21,15.30
2017,05,17,16,22,15.30
2017,05,17,16,23,15.20
2017,05,17,16,24,15.20
2017,05,17,16,25,15.20
2017,05,17,16,26,15.20
2017,05,17,16,27,15.20
2017,05,17,16,28,15.20
2017,05,17,16,29,15.20
2017,05,17,16,30,15.20
2017,05,17,16,31,15.20
2017,05,17,16,32,15.20
2017,05,17,16,33,15.20
2017,05,17,16,34,15.20
2017,05,17,16,35,15.20
2017,05,17,16,36,15.20
2017,05,17,16,37,15.20
2017,05,17,16,38,15.20
2017,05,17,16,39,15.20
2017,05,17,16,40,15.30
2017,05,17,16,41,15.30
2017,05,17,16,42,15.40
2017,05,17,16,43,15.40
2017,05,17,16,44,15.50
2017,05,17,16,45,15.50
2017,05,17,16,46,15.60
2017,05,17,16,47,15.60
2017,05,17,16,48,15.50
2017,05,17,16,49,15.50
2017,05,17,16,50,15.40
2017,05,17,16,51,15.40
2017,05,17,16,52,15.40
2017,05,17,16,53,15.30
2017,05,17,16,54,15.30
2017,05,17,16,55,15.20
2017,05,17,16,56,15.20
2017,05,17,16,57,15.20
2017,05,17,16,58,15.20
2017,05,17,16,59,15.10
2017,05,17,17,00,15.10
2017,05,17,17,01,15.10
2017,05,17,17,02,15.10
2017,05,17,17,03,15.00
2017,05,17,17,04,15.00
2017,05,17,17,05,15.00
2017,05,17,17,06,15.00
2017,05,17,17,07,15.00
2017,05,17,17,08,14.90
2017,05,17,17,09,14.90
2017,05,17,17,10,14.90
2017,05,17,17,11,14.90
2017,05,17,17,12,14.90
2017,05,17,17,13,14.90
2017,05,17,17,14,14.80
2017,05,17,17,15,14.80
2017,05,17,17,16,14.80
2017,05,17,17,17,14.80
2017,05,17,17,18,14.80
2017,05,17,17,19,14.80
2017,05,17,17,20,14.70
2017,05,17,17,21,14.70
2017,05,17,17,22,14.70
2017,05,17,17,23,14.70
2017,05,17,17,24,14.70
2017,05,17,17,25,14.70
2017,05,17,17,26,14.70
2017,05,17,17,27,14.70
2017,05,17,17,28,14.70
2017,05,17,17,29,14.60
2017,05,17,17,30,14.60
2017,05,17,17,31,14.60
2017,05,17,17,32,14.60
2017,05,17,17,33,14.60
2017,05,17,17,34,14.60
2017,05,17,17,35,14.60
2017,05,17,17,36,14.60
2017,05,17,17,37,14.60
2017,05,17,17,38,14.60
2017,05,17,17,39,14.60
2017,05,17,17,40,14.60
2017,05,17,17,41,14.60
2017,05,17,17,42,14.60
2017,05,17,17,43,14.60
2017,05,17,17,44,14.60
2017,05,17,17,45,14.60